{"data":{"norad_id":59289,"intl_designator":"2024-053B","name":"MOLA","alt_names":[],"object_type":"PAYLOAD","status":"ACTIVE","operator":null,"country":"US","launch_date":"2024-03-21","launch_site_code":"WLPIS","launch_vehicle":null,"mission":null,"orbit_class":"UNKNOWN","rcs_meters":null,"size_class":null,"mass_kg":null,"dimensions":null,"purposes":[],"wikipedia_slug":null,"has_3d_model":false,"image_url":null,"decayed_at":null,"tle_current":{"epoch":"2026-09-21T23:05:45.578112Z","epoch_age_seconds":134501,"freshness":"FRESH","line1":"1 59289U 24053B   26264.96233308  .00053130  00000+0  46249-3 0  9990","line2":"2 59289  49.9824 147.1959 0001745 148.3081 211.7998 15.68446853136646","mean_motion":15.68446853,"eccentricity":0.0001745,"inclination_deg":49.9824,"raan_deg":147.1959,"arg_perigee_deg":148.3081,"mean_anomaly_deg":211.7998,"bstar":0.00046249,"rev_number":13664,"period_min":91.810570262275,"perigee_km":362.16743088103,"apogee_km":364.52020768696,"semimajor_km":6741.480819284,"source":"CELESTRAK","updated_at":"2026-09-23T09:00:19.285449Z"}}}